TimeMDT,TemperatureF,Dew PointF,Humidity,Sea Level PressureIn,VisibilityMPH,Wind Direction,Wind SpeedMPH,Gust SpeedMPH,PrecipitationIn,Events,Conditions,WindDirDegrees,DateUTC
12:53 AM,39.9,28.9,65,30.15,10.0,West,5.8,-,N/A,,Clear,280,2013-10-25 06:53:00
1:53 AM,39.0,28.9,67,30.16,10.0,WSW,4.6,-,N/A,,Clear,250,2013-10-25 07:53:00
2:53 AM,36.0,28.9,76,30.18,10.0,Calm,Calm,-,N/A,,Clear,0,2013-10-25 08:53:00
3:53 AM,35.1,28.9,78,30.18,10.0,West,3.5,-,N/A,,Clear,270,2013-10-25 09:53:00
4:53 AM,35.1,28.0,76,30.18,10.0,West,4.6,-,N/A,,Clear,270,2013-10-25 10:53:00
5:53 AM,36.0,28.0,73,30.18,10.0,West,4.6,-,N/A,,Clear,260,2013-10-25 11:53:00
6:53 AM,34.0,28.0,79,30.22,10.0,Calm,Calm,-,N/A,,Clear,0,2013-10-25 12:53:00
7:53 AM,35.1,27.0,72,30.24,10.0,Calm,Calm,-,N/A,,Clear,0,2013-10-25 13:53:00
8:53 AM,41.0,30.0,65,30.25,10.0,Calm,Calm,-,N/A,,Mostly Cloudy,0,2013-10-25 14:53:00
9:53 AM,46.0,30.0,54,30.25,10.0,Calm,Calm,-,N/A,,Clear,0,2013-10-25 15:53:00
10:53 AM,50.0,30.9,48,30.23,10.0,Calm,Calm,-,N/A,,Clear,0,2013-10-25 16:53:00
11:53 AM,55.0,30.9,40,30.21,10.0,Calm,Calm,-,N/A,,Clear,0,2013-10-25 17:53:00
12:53 PM,57.0,30.0,36,30.18,10.0,Calm,Calm,-,N/A,,Clear,0,2013-10-25 18:53:00
1:53 PM,60.1,30.9,33,30.14,10.0,Calm,Calm,-,N/A,,Clear,0,2013-10-25 19:53:00
2:53 PM,63.0,30.0,29,30.12,10.0,Calm,Calm,-,N/A,,Clear,0,2013-10-25 20:53:00
3:53 PM,63.0,32.0,31,30.12,10.0,Calm,Calm,-,N/A,,Clear,0,2013-10-25 21:53:00
4:53 PM,64.0,30.9,29,30.12,10.0,Calm,Calm,-,N/A,,Clear,0,2013-10-25 22:53:00
5:53 PM,61.0,30.9,32,30.13,10.0,ESE,3.5,-,N/A,,Clear,120,2013-10-25 23:53:00
6:53 PM,54.0,32.0,43,30.18,10.0,Calm,Calm,-,N/A,,Clear,0,2013-10-26 00:53:00
7:53 PM,50.0,32.0,50,30.20,10.0,West,5.8,-,N/A,,Clear,280,2013-10-26 01:53:00
8:53 PM,48.0,30.9,52,30.20,10.0,WNW,5.8,-,N/A,,Clear,300,2013-10-26 02:53:00
9:53 PM,46.0,28.9,51,30.20,10.0,WNW,5.8,-,N/A,,Clear,300,2013-10-26 03:53:00
10:53 PM,42.1,28.0,58,30.22,10.0,West,3.5,-,N/A,,Clear,280,2013-10-26 04:53:00
11:53 PM,39.0,28.0,65,30.21,10.0,West,3.5,-,N/A,,Clear,280,2013-10-26 05:53:00